Location: Unspecified
(49.9820°N, 20.4363°E)
Time: 01:39:04
(UTC+02:00)

ISS - Pass Details

Date: 13 October 2018
Orbit: 402 x 408 km, 51.6° (Epoch: 22 October)

Event Time Altitude Azimuth Distance (km) Brightness Sun altitude
Rises 18:20:11 0° 283° (WNW) 2,339 1.7 -5.4°
Reaches altitude 10° 18:22:43 10° 264° (W) 1,474 0.9 -5.8°
Maximum altitude 18:25:01 18° 220° (SW) 1,093 -1.0 -6.2°
Drops below altitude 10° 18:27:19 10° 175° (S) 1,467 -1.0 -6.5°
Sets 18:29:50 0° 155° (SSE) 2,322 -0.2 -6.9°
